Weather History for Hutchinson, MN

Change the Weather History Date:

Thursday, October 25, 2012

  Actual Average Record
Temperature  
Mean Temperature 40 °F -  
Max Temperature 46 °F 57 °F 79 °F (1989)
Min Temperature 34 °F 35 °F 21 °F (1957)
Degree Days  
Heating Degree Days 25    
Moisture  
Dew Point 35 °F    
Average Humidity 89    
Maximum Humidity 100    
Minimum Humidity 75    
Precipitation  
Precipitation 0.29 in - - ()
Sea Level Pressure  
Sea Level Pressure 29.92 in    
Wind  
Wind Speed 18 mph (NW)    
Max Wind Speed 26 mph    
Max Gust Speed 31 mph    
Visibility 8 miles    
Events Rain , Snow , Thunderstorm    
Averages and records for this station are not official NWS values.
T = Trace of Precipitation, MM = Missing Value Source: NWS Daily Summary

Daily Weather History Graph

Daily Weather History Graph

Search for Another Location

Airport:

Trip Planner

Search our weather history database for the weather conditions in past years. The results will help you decide how hot, cold, wet, or windy it might be!

Date:

Astronomy

Oct. 25, 2012 Rise Set
Actual Time 7:46 AM CDT 6:15 PM CDT
Civil Twilight 7:16 AM CDT 6:45 PM CDT
Nautical Twilight 6:42 AM CDT 7:19 PM CDT
Astronomical Twilight 6:08 AM CDT 7:53 PM CDT
Moon 4:09 PM CDT (10/25) 3:35 AM CDT (10/25)
Length of Visible Light 11h 28m
Length of Day
10h 28m
Waxing Gibbous, 84% of the Moon is Illuminated
Oct 25
Waxing Gibbous
Oct 29
Full
Nov 6
Last Quarter
Nov 13
New
Nov 20
First Quarter

Hourly Weather History & Observations

Time (CDT) Temp. Windchill Dew Point Humidity Pressure Visibility Wind Dir Wind Speed Gust Speed Precip Events Conditions
12:09 AM 46.6 °F - 42.1 °F 84% 29.82 in 10.0 mi NNW 18.4 mph 25.3 mph N/A   Overcast
12:28 AM 46.4 °F 39.0 °F 42.8 °F 87% 29.81 in 7.0 mi NNW 19.6 mph 25.3 mph N/A   Drizzle
12:49 AM 43.9 °F 37.2 °F 41.9 °F 93% 29.79 in 4.0 mi NNW 13.8 mph 25.3 mph 0.01 in Rain Rain
1:09 AM 42.8 °F 35.8 °F 41.5 °F 95% 29.79 in 5.0 mi NNW 13.8 mph 23.0 mph N/A   Overcast
1:29 AM 42.8 °F 34.8 °F 41.9 °F 97% 29.77 in 7.0 mi North 17.3 mph 27.6 mph N/A   Overcast
1:48 AM 42.8 °F 34.5 °F 41.5 °F 95% 29.77 in 10.0 mi NNW 18.4 mph 24.2 mph N/A   Overcast
2:29 AM 42.8 °F 35.4 °F 41.2 °F 94% 29.77 in 7.0 mi NNW 15.0 mph 25.3 mph N/A   Drizzle
2:49 AM 42.8 °F 35.1 °F 41.2 °F 94% 29.78 in 4.0 mi NNW 16.1 mph 27.6 mph N/A   Drizzle
3:09 AM 42.3 °F 35.1 °F 41.0 °F 95% 29.78 in 5.0 mi NNW 13.8 mph 24.2 mph N/A   Light Drizzle
3:29 AM 41.9 °F 33.7 °F 40.8 °F 96% 29.79 in 7.0 mi NW 17.3 mph - N/A   Light Drizzle
3:49 AM 41.5 °F 32.9 °F 40.5 °F 96% 29.76 in 5.0 mi NNW 18.4 mph 23.0 mph N/A Rain , Thunderstorm Light Thunderstorms and Rain
4:09 AM 41.2 °F 31.9 °F 40.5 °F 97% 29.75 in 3.0 mi NNW 20.7 mph 26.5 mph 0.02 in Rain Light Rain
4:28 AM 40.5 °F 31.5 °F 39.7 °F 97% 29.75 in 4.0 mi NNW 18.4 mph 24.2 mph 0.06 in Rain Rain
4:49 AM 40.8 °F 31.7 °F 40.3 °F 98% 29.75 in 5.0 mi NNW 19.6 mph 23.0 mph 0.13 in Rain Rain
5:08 AM 40.3 °F 30.4 °F 39.7 °F 98% 29.78 in 7.0 mi NW 21.9 mph 28.8 mph 0.01 in Rain , Thunderstorm Rain
5:29 AM 39.7 °F 29.7 °F 39.2 °F 98% 29.77 in 7.0 mi NW 21.9 mph 25.3 mph 0.06 in Rain Light Rain
5:49 AM 39.2 °F 29.6 °F 38.5 °F 97% 29.78 in 7.0 mi NNW 19.6 mph 29.9 mph 0.09 in Rain Light Rain
6:29 AM 38.8 °F 27.6 °F 38.1 °F 97% 29.77 in 10.0 mi NNW 26.5 mph 31.1 mph 0.01 in Rain Rain
6:49 AM 36.7 °F 26.0 °F 36.3 °F 99% 29.78 in 10.0 mi NNW 20.7 mph 31.1 mph 0.01 in   Drizzle
7:09 AM 36.5 °F 24.9 °F 36.1 °F 99% 29.79 in 5.0 mi NNW 24.2 mph 29.9 mph 0.01 in Rain Light Rain
7:29 AM 36.5 °F 25.7 °F 36.1 °F 99% 29.80 in 5.0 mi NW 20.7 mph 29.9 mph 0.02 in Rain Light Rain
7:49 AM 36.5 °F 26.0 °F 36.1 °F 99% 29.79 in 5.0 mi NW 19.6 mph 28.8 mph 0.03 in Rain Light Rain
8:49 AM 35.2 °F 24.1 °F 35.1 °F 99% 29.82 in 2.5 mi WNW 20.7 mph 25.3 mph 0.02 in Rain Rain
9:09 AM 36.5 °F 24.9 °F 36.5 °F 100% 29.83 in 4.0 mi NW 24.2 mph 31.1 mph N/A Rain Light Rain
9:28 AM 36.5 °F 24.4 °F 36.5 °F 100% 29.84 in 5.0 mi NW 26.5 mph 31.1 mph N/A Snow Light Snow
9:49 AM 35.2 °F 23.5 °F 34.9 °F 99% 29.85 in 1.8 mi NW 23.0 mph 29.9 mph N/A Snow Light Snow
10:09 AM 34.0 °F 22.4 °F 33.8 °F 99% 29.86 in 1.2 mi NW 20.7 mph 31.1 mph 0.01 in Snow Light Snow
10:49 AM 34.0 °F 23.0 °F 33.8 °F 99% 29.89 in 1.8 mi WNW 18.4 mph 25.3 mph 0.01 in Snow Light Snow
11:08 AM 34.0 °F 23.8 °F 33.8 °F 99% 29.89 in 1.0 mi NW 16.1 mph 27.6 mph N/A Snow Light Snow
12:08 PM 34.5 °F 23.8 °F 33.3 °F 95% 29.90 in 2.5 mi NW 18.4 mph 27.6 mph N/A Snow Light Snow
12:28 PM 36.5 °F 26.3 °F 35.1 °F 95% 29.90 in 10.0 mi NW 18.4 mph 26.5 mph N/A   Mostly Cloudy
12:49 PM 36.5 °F 24.9 °F 34.0 °F 91% 29.92 in 10.0 mi NW 24.2 mph 31.1 mph N/A   Overcast
1:49 PM 37.4 °F 27.5 °F 33.1 °F 84% 29.93 in 10.0 mi NW 18.4 mph 25.3 mph N/A   Overcast
2:08 PM 39.2 °F 29.3 °F 34.9 °F 84% 29.93 in 10.0 mi WNW 20.7 mph 26.5 mph N/A   Overcast
2:28 PM 39.2 °F 29.8 °F 34.3 °F 83% 29.94 in 10.0 mi NW 18.4 mph 26.5 mph N/A   Overcast
2:48 PM 39.2 °F 29.8 °F 34.0 °F 82% 29.94 in 10.0 mi NW 18.4 mph 29.9 mph N/A   Overcast
3:09 PM - - - N/A% 29.95 in 10.0 mi WNW 18.4 mph 27.6 mph N/A   Overcast
3:29 PM 39.2 °F 28.7 °F 32.9 °F 78% 29.95 in 10.0 mi WNW 23.0 mph 31.1 mph N/A   Overcast
3:48 PM 39.2 °F 29.8 °F 32.7 °F 78% 29.96 in 10.0 mi WNW 18.4 mph 31.1 mph N/A   Overcast
4:28 PM 39.2 °F 30.8 °F 33.3 °F 79% 29.98 in 10.0 mi WNW 15.0 mph - N/A   Overcast
4:49 PM 39.2 °F 29.3 °F 33.3 °F 79% 30.00 in 10.0 mi WNW 20.7 mph 26.5 mph N/A   Overcast
5:08 PM 39.2 °F 29.6 °F 33.4 °F 80% 30.01 in 10.0 mi West 19.6 mph 25.3 mph N/A   Overcast
5:28 PM 37.0 °F 28.1 °F 31.8 °F 81% 30.03 in 10.0 mi WNW 15.0 mph 26.5 mph N/A   Overcast
5:49 PM 37.0 °F 27.4 °F 31.1 °F 79% 30.04 in 10.0 mi WNW 17.3 mph 26.5 mph N/A   Overcast
6:09 PM 36.7 °F 26.9 °F 30.7 °F 79% 30.06 in 10.0 mi WNW 17.3 mph 23.0 mph N/A   Overcast
6:28 PM 36.7 °F 27.6 °F 30.2 °F 77% 30.07 in 10.0 mi WNW 15.0 mph 20.7 mph N/A   Overcast
6:49 PM 36.5 °F 27.8 °F 31.3 °F 81% 30.08 in 10.0 mi West 13.8 mph - N/A   Overcast
7:09 PM 36.5 °F 28.2 °F 31.6 °F 83% 30.09 in 10.0 mi West 12.7 mph - N/A   Overcast
7:29 PM 36.5 °F 28.2 °F 32.0 °F 84% 30.10 in 10.0 mi West 12.7 mph - N/A   Overcast
8:08 PM 36.5 °F 28.2 °F 32.0 °F 84% 30.11 in 10.0 mi West 12.7 mph 17.3 mph N/A   Overcast
8:28 PM 36.5 °F 27.0 °F 31.3 °F 81% 30.12 in 10.0 mi West 16.1 mph 23.0 mph N/A   Overcast
8:30 PM 36.5 °F 27.0 °F 31.1 °F 81% 30.12 in 10.0 mi West 16.1 mph 23.0 mph N/A   Overcast
9:10 PM 35.6 °F 26.2 °F 30.2 °F 81% 30.13 in 10.0 mi West 15.0 mph - N/A   Overcast
9:30 PM 35.6 °F 25.9 °F 30.2 °F 81% 30.14 in 10.0 mi West 16.1 mph 23.0 mph N/A   Overcast
9:50 PM 35.6 °F 26.6 °F 30.2 °F 81% 30.15 in 10.0 mi West 13.8 mph - N/A   Overcast
10:30 PM 35.6 °F 26.2 °F 28.4 °F 75% 30.15 in 10.0 mi WNW 15.0 mph 23.0 mph N/A   Overcast
10:50 PM 35.6 °F 26.2 °F 28.4 °F 75% 30.16 in 10.0 mi West 15.0 mph 25.3 mph N/A   Overcast
11:10 PM 35.6 °F 25.5 °F 28.4 °F 75% 30.17 in 10.0 mi West 17.3 mph - N/A   Overcast
11:30 PM 35.6 °F 25.9 °F 28.4 °F 75% 30.17 in 10.0 mi West 16.1 mph 24.2 mph N/A   Overcast
11:50 PM 35.6 °F 27.5 °F 32.0 °F 87% 30.18 in 10.0 mi West 11.5 mph - N/A   Overcast